TimeCDT,TemperatureF,Dew PointF,Humidity,Sea Level PressureIn,VisibilityMPH,Wind Direction,Wind SpeedMPH,Gust SpeedMPH,PrecipitationIn,Events,Conditions,WindDirDegrees,DateUTC
1:54 AM,8.1,-0.9,67,30.07,10.0,NNW,3.5,-,N/A,,Clear,330,2013-03-21 06:54:00
2:54 AM,8.1,-0.0,70,30.07,10.0,NNW,3.5,-,N/A,,Clear,340,2013-03-21 07:54:00
3:54 AM,7.0,-0.0,73,30.07,10.0,WNW,5.8,-,N/A,,Clear,300,2013-03-21 08:54:00
4:54 AM,6.1,1.0,80,30.05,10.0,NW,6.9,-,N/A,,Clear,310,2013-03-21 09:54:00
5:54 AM,5.0,-0.0,80,30.06,10.0,WNW,8.1,-,N/A,,Clear,300,2013-03-21 10:54:00
6:54 AM,3.9,-0.9,80,30.07,10.0,WNW,8.1,-,N/A,,Clear,300,2013-03-21 11:54:00
7:54 AM,5.0,-0.0,80,30.08,10.0,NW,5.8,-,N/A,,Partly Cloudy,310,2013-03-21 12:54:00
8:06 AM,5.0,-0.4,78,29.98,10.0,WNW,5.8,-,N/A,,Mostly Cloudy,300,2013-03-21 13:06:00
8:54 AM,9.0,3.0,77,30.08,10.0,NW,4.6,-,N/A,,Overcast,310,2013-03-21 13:54:00
9:54 AM,15.1,7.0,70,30.07,10.0,Variable,3.5,-,N/A,,Overcast,0,2013-03-21 14:54:00
10:54 AM,19.0,9.0,65,30.07,10.0,WNW,9.2,-,0.00,,Overcast,300,2013-03-21 15:54:00
11:54 AM,21.0,8.1,57,30.07,10.0,NW,8.1,17.3,0.00,,Overcast,310,2013-03-21 16:54:00
12:52 PM,23.0,8.6,54,29.97,10.0,NW,6.9,-,0.00,,Scattered Clouds,310,2013-03-21 17:52:00
12:54 PM,23.0,9.0,55,30.06,10.0,WNW,8.1,-,0.00,,Scattered Clouds,300,2013-03-21 17:54:00
1:54 PM,24.1,10.0,55,30.05,10.0,WNW,4.6,-,0.00,,Clear,290,2013-03-21 18:54:00
2:54 PM,26.1,9.0,49,30.03,10.0,WSW,6.9,-,0.00,,Clear,250,2013-03-21 19:54:00
3:54 PM,26.1,10.0,51,30.02,10.0,WNW,10.4,-,0.00,,Clear,290,2013-03-21 20:54:00
4:54 PM,26.1,10.0,51,30.02,10.0,West,8.1,-,0.00,,Clear,280,2013-03-21 21:54:00
5:54 PM,25.0,10.0,53,30.02,10.0,West,9.2,-,0.00,,Clear,270,2013-03-21 22:54:00
6:54 PM,23.0,9.0,55,30.04,10.0,West,5.8,-,N/A,,Clear,270,2013-03-21 23:54:00
7:54 PM,21.0,8.1,57,30.04,10.0,West,5.8,-,N/A,,Clear,280,2013-03-22 00:54:00
8:54 PM,19.0,8.1,62,30.04,10.0,NW,6.9,-,N/A,,Clear,310,2013-03-22 01:54:00
9:54 PM,17.1,7.0,65,30.05,10.0,NW,6.9,-,N/A,,Clear,310,2013-03-22 02:54:00
10:54 PM,16.0,6.1,65,30.05,10.0,NW,5.8,-,N/A,,Clear,320,2013-03-22 03:54:00
11:54 PM,12.9,6.1,74,30.06,10.0,Calm,Calm,-,N/A,,Clear,0,2013-03-22 04:54:00